Location: Devore Heights
(34.2372°N, 117.4156°W)
Time: 19:26:44
(UTC+00:00)

S-56A Canister/Altair - Pass Details

Date: 19 September 2024
Orbit: 636 x 2487 km, 38.9° (Epoch: 14 October)

Event Time Altitude Azimuth Distance (km) Brightness Sun altitude
Rises 07:45:58 0° 286° (WNW) 4,307 - -54.5°
Reaches altitude 10° 07:48:47 10° 277° (W) 3,573 - -54.5°
Maximum altitude 07:57:13 36° 215° (SW) 2,664 - -54.4°
Drops below altitude 10° 08:08:42 10° 155° (SSE) 4,856 - -54.0°
Sets 08:13:20 0° 148° (SSE) 6,022 - -53.8°
